Orbital Elements at Epoch 2459000.5 (2020-May-31.0) TDB
Reference: JPL 18 (heliocentric ecliptic J2000)
Element | Value | Uncertainty (1-sigma) | Units |
e | .3723652719988748 | 3.5903e-08 | |
a | 3.271825617150775 | 2.1359e-08 | au |
q | 2.05351138128754 | 1.2286e-07 | au |
i | 7.811955775113681 | 6.2181e-06 | deg |
node | 175.9590508303486 | 4.166e-05 | deg |
peri | 328.4509145904529 | 4.3236e-05 | deg |
M | 344.7602989205308 | 1.1194e-05 | deg |
tp | 2459092.007691072960 (2020-Aug-30.50769107) | 6.7743e-05 | TDB |
period | 2161.64140060763 5.92 | 2.1167e-05 5.795e-08 | d yr |
n | .1665401115554158 | 1.6308e-09 | deg/d |
Q | 4.49013985301401 | 2.9312e-08 | au |
|
| | Orbit Determination Parameters
Additional Information
|